Binghamton, NY

2:39 PM EST on November 13, 2019 (GMT -0500)
Binghamton Regional-Link

Weather History for KBGM - September, 2019

Change the Weather History Date:

Thursday, September 12, 2019

  Actual Average Record
Temperature  
Mean Temperature 61 °F 61 °F  
Max Temperature 69 °F 70 °F 85 °F (1952)
Min Temperature 52 °F 52 °F 37 °F (1985)
Degree Days  
Heating Degree Days 4 5  
Month to date heating degree days 45 46  
Since 1 July heating degree days 82 109  
Cooling Degree Days 0 1  
Month to date cooling degree days 9 19  
Year to date cooling degree days 371 367  
Growing Degree Days 10 (Base 50)    
Moisture  
Dew Point 61 °F    
Average Humidity 91    
Maximum Humidity 100    
Minimum Humidity 81    
Precipitation  
Precipitation 0.21 in 0.11 in 2.32 in (1960)
Month to date precipitation 1.56 1.39  
Year to date precipitation 30.35 27.60  
Snow  
Snow 0.00 in 0.00 in 0.00 in (2002)
Month to date snowfall 0.0 0.0  
Since 1 July snowfall 0.0 0.0  
Since 1 September snowfall 0.0 0.0  
Snow Depth 0.00 in    
Sea Level Pressure  
Sea Level Pressure 30.15 in    
Wind  
Wind Speed 7 mph (North)    
Max Wind Speed 15 mph    
Max Gust Speed 20 mph    
Visibility 6 miles    
Events Fog , Rain , Thunderstorm    
T = Trace of Precipitation, MM = Missing Value Source: NWS Daily Summary

Daily Weather History Graph

Daily Weather History Graph

Search for Another Location

Airport or City:

Astronomy

Sep. 12, 2019 Rise Set
Actual Time 6:40 AM EDT 7:19 PM EDT
Civil Twilight 6:12 AM EDT 7:47 PM EDT
Nautical Twilight 5:38 AM EDT 8:20 PM EDT
Astronomical Twilight 5:04 AM EDT 8:55 PM EDT
Moon 7:04 PM EDT (9/12) 4:55 AM EDT (9/12)
Length of Visible Light 13h 35m
Length of Day
12h 38m
Waxing Gibbous, 98% of the Moon is Illuminated
Sep 12
Waxing Gibbous
Sep 14
Full
Sep 21
Last Quarter
Sep 28
New
Oct 5
First Quarter

Hourly Weather History & Observations

Time (EDT) Temp. Dew Point Humidity Pressure Visibility Wind Dir Wind Speed Gust Speed Precip Events Conditions
12:53 AM 68.0 °F 64.9 °F 90% 30.05 in 10.0 mi Calm Calm - N/A   Partly Cloudy
1:35 AM 68.0 °F 64.9 °F 90% 30.07 in 8.0 mi South 5.8 mph - 0.00 in Rain , Thunderstorm Light Thunderstorms and Rain
2:13 AM 66.9 °F 66.0 °F 97% 30.07 in 3.0 mi South 5.8 mph - 0.05 in Rain , Thunderstorm Light Rain
2:23 AM 66.9 °F 66.0 °F 97% 30.07 in 3.0 mi South 4.6 mph - 0.07 in Rain , Thunderstorm Rain
2:25 AM 66.9 °F 66.0 °F 97% 30.07 in 2.5 mi South 4.6 mph - 0.08 in Rain Rain
2:35 AM 66.9 °F 66.0 °F 97% 30.07 in 3.0 mi SSW 5.8 mph - 0.11 in Rain Rain
2:53 AM 66.0 °F 64.9 °F 96% 30.04 in 7.0 mi WSW 8.1 mph - 0.15 in Rain Light Rain
3:02 AM 64.9 °F 64.0 °F 97% 30.08 in 10.0 mi WSW 4.6 mph - 0.00 in Rain Light Rain
3:40 AM 64.9 °F 64.0 °F 97% 30.07 in 1.5 mi SW 3.5 mph - 0.00 in   Mostly Cloudy
3:45 AM 64.9 °F 64.0 °F 97% 30.07 in 0.5 mi WSW 3.5 mph - 0.00 in Fog Fog
3:53 AM 64.9 °F 64.0 °F 97% 30.04 in 0.5 mi NW 5.8 mph - 0.00 in Fog Fog
4:07 AM 64.9 °F 64.0 °F 97% 30.06 in 3.0 mi WNW 3.5 mph - N/A   Overcast
4:19 AM 64.9 °F 64.0 °F 97% 30.06 in 8.0 mi WNW 5.8 mph - N/A   Overcast
4:53 AM 64.9 °F 64.0 °F 97% 30.03 in 5.0 mi WNW 5.8 mph - N/A   Scattered Clouds
5:03 AM 64.9 °F 64.0 °F 97% 30.07 in 4.0 mi WNW 5.8 mph - N/A   Mostly Cloudy
5:11 AM 64.9 °F 64.0 °F 97% 30.07 in 1.8 mi WNW 5.8 mph - N/A   Mostly Cloudy
5:31 AM 64.9 °F 64.9 °F 100% 30.08 in 0.5 mi NW 5.8 mph - N/A Fog Fog
5:38 AM 64.9 °F 64.9 °F 100% 30.08 in 0.2 mi WNW 5.8 mph - N/A Fog Fog
5:53 AM 64.9 °F 64.9 °F 100% 30.05 in 0.2 mi NW 5.8 mph - N/A Fog Fog
6:29 AM 64.0 °F 64.0 °F 100% 30.09 in 0.8 mi NW 5.8 mph - N/A   Overcast
6:53 AM 64.0 °F 64.0 °F 100% 30.08 in 0.8 mi NW 8.1 mph - N/A   Overcast
8:08 AM 64.0 °F 64.0 °F 100% 30.11 in 1.0 mi NNE 3.5 mph - N/A   Mostly Cloudy
8:53 AM 64.9 °F 64.0 °F 97% 30.10 in 1.0 mi NNE 5.8 mph - N/A   Overcast
9:02 AM 64.9 °F 64.0 °F 97% 30.13 in 2.5 mi North 5.8 mph - N/A   Overcast
9:22 AM 64.9 °F 64.0 °F 97% 30.13 in 1.5 mi NNE 4.6 mph - N/A   Overcast
9:53 AM 64.9 °F 64.0 °F 97% 30.12 in 1.5 mi North 8.1 mph - 0.00 in Rain Light Rain
9:57 AM 64.9 °F 64.0 °F 97% 30.14 in 1.0 mi North 8.1 mph - 0.00 in Rain Light Rain
10:53 AM 63.0 °F 62.1 °F 97% 30.13 in 0.2 mi NNW 8.1 mph - 0.01 in Fog , Rain Light Rain
11:01 AM 64.0 °F 63.0 °F 96% 30.15 in 1.0 mi North 11.5 mph - 0.00 in Rain Light Rain
11:43 AM 64.0 °F 62.1 °F 93% 30.16 in 1.0 mi NE 10.4 mph - 0.02 in   Overcast
11:50 AM 62.6 °F 62.6 °F 100% 30.16 in 10.0 mi NE 9.2 mph - 0.02 in   Overcast
11:53 AM 63.0 °F 62.1 °F 97% 30.14 in 10.0 mi NNE 9.2 mph - 0.02 in   Overcast
12:44 PM 64.0 °F 61.0 °F 90% 30.17 in 2.0 mi NNE 10.4 mph - 0.00 in Rain Light Rain
12:53 PM 64.0 °F 61.0 °F 90% 30.15 in 7.0 mi NNE 6.9 mph - 0.00 in Rain Light Rain
1:53 PM 64.0 °F 61.0 °F 90% 30.15 in 10.0 mi North 5.8 mph - 0.00 in   Overcast
2:16 PM 64.9 °F 62.1 °F 90% 30.17 in 10.0 mi North 5.8 mph - N/A   Overcast
2:23 PM 64.9 °F 62.1 °F 90% 30.17 in 10.0 mi North 6.9 mph - N/A   Overcast
2:53 PM 66.0 °F 61.0 °F 84% 30.15 in 10.0 mi North 6.9 mph - N/A   Overcast
3:16 PM 66.0 °F 61.0 °F 84% 30.17 in 10.0 mi North 5.8 mph - N/A   Overcast
3:53 PM 64.9 °F 60.1 °F 84% 30.17 in 10.0 mi North 10.4 mph - 0.00 in   Overcast
4:04 PM 66.0 °F 60.1 °F 81% 30.18 in 10.0 mi North 9.2 mph - N/A   Overcast
4:27 PM 64.9 °F 60.1 °F 84% 30.19 in 10.0 mi North 12.7 mph - N/A   Overcast
4:53 PM 64.9 °F 59.0 °F 81% 30.19 in 10.0 mi NNW 10.4 mph - N/A   Overcast
5:29 PM 64.0 °F 57.9 °F 80% 30.21 in 10.0 mi North 12.7 mph 19.6 mph N/A   Overcast
5:38 PM 63.0 °F 57.9 °F 84% 30.22 in 10.0 mi North 12.7 mph - N/A   Overcast
5:53 PM 63.0 °F 57.9 °F 84% 30.21 in 10.0 mi North 10.4 mph - N/A   Overcast
6:36 PM 62.1 °F 57.0 °F 84% 30.24 in 10.0 mi North 9.2 mph - N/A   Mostly Cloudy
6:43 PM 61.0 °F 57.0 °F 87% 30.24 in 10.0 mi North 10.4 mph - N/A   Mostly Cloudy
6:53 PM 61.0 °F 57.0 °F 87% 30.24 in 10.0 mi North 9.2 mph - N/A   Overcast
7:01 PM 61.0 °F 57.0 °F 87% 30.25 in 10.0 mi North 11.5 mph - N/A   Overcast
7:41 PM 60.1 °F 55.9 °F 86% 30.26 in 10.0 mi NNE 9.2 mph - N/A   Overcast
7:53 PM 60.1 °F 55.9 °F 86% 30.26 in 10.0 mi NNE 9.2 mph - N/A   Overcast
8:21 PM 59.0 °F 55.0 °F 87% 30.27 in 10.0 mi NE 5.8 mph - N/A   Overcast
8:29 PM 59.0 °F 55.0 °F 87% 30.28 in 10.0 mi NE 5.8 mph - N/A   Overcast
8:53 PM 57.9 °F 55.0 °F 90% 30.28 in 10.0 mi ENE 8.1 mph - N/A   Overcast
9:00 PM 57.9 °F 55.0 °F 90% 30.29 in 10.0 mi ENE 9.2 mph - N/A   Overcast
9:53 PM 55.9 °F 54.0 °F 93% 30.30 in 10.0 mi ENE 5.8 mph - N/A   Mostly Cloudy
10:00 PM 55.9 °F 54.0 °F 93% 30.30 in 10.0 mi ENE 6.9 mph - N/A   Mostly Cloudy
10:53 PM 54.0 °F 53.1 °F 97% 30.31 in 10.0 mi ENE 4.6 mph - N/A   Clear
11:53 PM 53.1 °F 52.0 °F 96% 30.31 in 10.0 mi ENE 9.2 mph - N/A   Clear